User: anonymous   Login
Location: Starry Hill Observatory
(46.8582°N, 122.3590°W)
Time: 22:19:03
(UTC-07:00)
Language:

Cosmos 1300 Rocket - Orbit

View from above orbital plane
View from above orbital plane
View from above satellite
View from above satellite

Ground track
Ground track

The orbit data is extracted from the following two-line orbital elements,

1 12786U 81082B   18109.78093866  .00000076  00000-0  61846-5 0  9992
2 12786  82.4915  38.7389 0016697 327.3904  32.6279 14.84724096980304
Epoch (UTC): 19 April 2018 18:44:33
Eccentricity: 0.0016697
inclination: 82.4915°
perigee height: 603 km
apogee height: 626 km
right ascension of ascending node: 38.7389°
argument of perigee: 327.3904°
revolutions per day: 14.84724096
mean anomaly at epoch: 32.6279°
orbit number at epoch: 98030

The dashed part of the orbit path shows where the satellite is in the earth's shadow,  

DLR